Location: *
(37.5724°S, 58.0067°E)
Time: 10:57:08
(UTC+00:00)

MOS 1 Rocket - Pass Details

Date: 26 September 2020
Orbit: 614 x 831 km, 97.4° (Epoch: 29 October)

Event Time Altitude Azimuth Distance (km) Brightness Sun altitude
Rises 14:21:19 0° 16° (NNE) 2,955 6.3 -3.4°
Reaches altitude 10° 14:23:27 10° 17° (NNE) 2,078 5.5 -3.9°
Maximum altitude 14:27:59 79° 104° (ESE) 713 3.3 -4.7°
Drops below altitude 10° 14:32:54 10° 189° (S) 2,240 6.1 -5.7°
Sets 14:35:16 0° 190° (S) 3,205 6.9 -6.2°
